This is the latest recevied weather packets stored in our database for station/object WR9A-13. If no packets are shown the sender has not sent any weather packets the latest 10 day(s).
| Time | Temp. | Humidity | Pressure | Rain* | Wind** | Luminosity | Snow |
|---|---|---|---|---|---|---|---|
| 1787665518 | 20° C | 75% | 1021.6 hPa | 0 mm | - | - | - |
| 1787665214 | 19.44° C | 78% | 1021.6 hPa | 0 mm | - | - | - |
| 1787664922 | 19.44° C | 79% | 1021.5 hPa | 0 mm | - | - | - |
| 1787664618 | 18.89° C | 80% | 1021.4 hPa | 0 mm | - | - | - |
| 1787664325 | 18.89° C | 81% | 1021.3 hPa | 0 mm | - | - | - |
| 1787664022 | 18.89° C | 82% | 1021.2 hPa | 0 mm | - | - | - |
| 1787663739 | 18.33° C | 83% | 1021.2 hPa | 0 mm | - | - | - |
| 1787663429 | 18.33° C | 83% | 1021.1 hPa | 0 mm | - | - | - |
| 1787663117 | 18.33° C | 83% | 1021.1 hPa | 0 mm | - | - | - |
| 1787662825 | 18.33° C | 82% | 1021.1 hPa | 0 mm | - | - | - |
| 1787662522 | 18.33° C | 83% | 1021.1 hPa | 0 mm | - | - | - |
| 1787662230 | 18.33° C | 84% | 1021.2 hPa | 0 mm | - | - | - |
| 1787661927 | 17.78° C | 85% | 1021.1 hPa | 0 mm | - | - | - |
| 1787661614 | 17.22° C | 90% | 1021.1 hPa | 0 mm | - | - | - |
| 1787661331 | 17.22° C | 91% | 1021 hPa | 0 mm | - | - | - |
| 1787661019 | 16.67° C | 92% | 1021 hPa | 0 mm | - | - | - |
| 1787660716 | 16.11° C | 94% | 1021.2 hPa | 0 mm | - | - | - |
| 1787660425 | 15.56° C | 94% | 1021.2 hPa | 0 mm | - | - | - |
| 1787660120 | 15° C | 94% | 1021.1 hPa | 0 mm | - | - | - |
| 1787659826 | 15° C | 94% | 1021 hPa | 0 mm | - | - | - |
| 1787659524 | 14.44° C | 94% | 1020.8 hPa | 0 mm | - | - | - |
| 1787659235 | 14.44° C | 93% | 1020.8 hPa | 0 mm | - | - | - |
| 1787658921 | 13.89° C | 93% | 1020.8 hPa | 0 mm | - | - | - |
| 1787658637 | 13.89° C | 93% | 1020.9 hPa | 0 mm | - | - | - |
| 1787658325 | 13.89° C | 93% | 1021 hPa | 0 mm | - | - | - |
* Rain latest hour (hover to see other rain measurements)
** Current wind speed in m/s (hover to see current wind gust speed)